Location: Dunedin
(45.8670°S, 170.5000°E)
Time: 10:41:02
(UTC+13:00)

ISS - Visible Passes

Search period start: 13 December 2019 00:00
Search period end: 23 December 2019 00:00
Orbit: 411 x 421 km, 51.6° (Epoch: 13 December)

Date Brightness Start Highest point End Pass type
(mag) Time Alt. Az. Time Alt. Az. Time Alt. Az.
13 Dec -3.0 00:47:37 44° ESE 00:47:37 44° ESE 00:50:06 10° ESE visible
13 Dec -2.1 02:20:25 10° W 02:23:37 35° SSW 02:26:50 10° ESE visible
13 Dec -1.8 03:57:47 10° WSW 04:00:57 32° S 04:04:05 10° ESE visible
13 Dec -2.6 23:59:26 31° E 23:59:26 31° E 00:01:33 10° ESE visible
14 Dec -2.5 01:32:11 13° W 01:35:02 43° SSW 01:38:21 10° ESE visible
14 Dec -1.7 03:09:13 10° WSW 03:12:18 30° S 03:15:24 10° ESE visible
14 Dec -3.0 04:46:06 10° WSW 04:49:30 59° SSE 04:52:53 10° ENE visible
14 Dec -2.9 23:08:30 21° N 23:09:51 28° NE 23:12:53 10° ESE visible
15 Dec -3.1 00:43:03 10° WNW 00:46:28 57° SSW 00:49:52 10° ESE visible
15 Dec -1.7 02:20:34 10° WSW 02:23:40 30° S 02:26:45 10° ESE visible
15 Dec -2.4 03:57:36 10° WSW 04:00:56 44° SSE 04:04:14 10° E visible
15 Dec -2.2 22:19:06 10° N 22:21:31 18° NE 22:23:57 10° E visible
15 Dec -3.7 23:54:28 10° WNW 23:57:55 81° SSW 00:01:24 10° ESE visible
16 Dec -1.8 01:31:51 10° WSW 01:35:01 32° S 01:38:09 10° ESE visible
16 Dec -2.0 03:09:05 10° WSW 03:12:19 36° SSE 03:15:32 10° E visible
16 Dec -3.8 04:45:50 10° WSW 04:49:16 68° NNW 04:52:39 10° NE visible
16 Dec -3.8 23:06:00 10° NW 23:09:25 68° NNE 23:12:51 10° ESE visible
17 Dec -2.1 00:43:07 10° W 00:46:21 36° SSW 00:49:36 10° ESE visible
17 Dec -1.8 02:20:31 10° WSW 02:23:40 32° S 02:26:48 10° ESE visible
17 Dec -3.6 03:57:18 10° WSW 04:00:46 80° SSE 04:04:10 10° ENE visible
17 Dec -3.3 22:17:41 10° NW 22:20:57 42° NE 22:24:15 10° ESE visible
17 Dec -2.5 23:54:23 10° W 23:57:43 44° SSW 00:01:04 10° ESE visible
18 Dec -1.6 01:31:53 10° WSW 01:35:00 30° S 01:38:05 10° ESE visible
18 Dec -3.0 03:08:47 10° WSW 03:12:12 56° SSE 03:15:35 10° ENE visible
18 Dec -2.8 04:45:48 10° WSW 04:48:48 28° NW 04:51:46 10° NNE visible
18 Dec -3.1 23:05:42 10° WNW 23:09:07 60° SSW 23:12:33 10° ESE visible
19 Dec -1.7 00:43:11 10° WSW 00:46:18 30° S 00:49:25 10° ESE visible
19 Dec -2.4 02:20:15 10° WSW 02:23:35 43° SSE 02:26:53 10° E visible
19 Dec -3.5 03:57:04 10° WSW 04:00:22 45° NW 04:03:39 10° NE visible
19 Dec -3.6 22:17:05 10° WNW 22:20:32 85° SSW 22:24:00 10° ESE visible
19 Dec -1.8 23:54:27 10° WSW 23:57:36 32° S 00:00:46 10° ESE visible
20 Dec -2.0 01:31:41 10° WSW 01:34:55 35° SSE 01:38:07 10° E visible
20 Dec -3.9 03:08:26 10° WSW 03:11:52 72° NNW 03:15:17 10° NE visible
20 Dec -1.8 04:46:43 10° WNW 04:48:05 12° NW 04:49:27 10° NNW visible
20 Dec -2.1 23:05:40 10° W 23:08:55 37° SSW 23:12:10 10° ESE visible
21 Dec -1.8 00:43:04 10° WSW 00:46:13 31° S 00:49:21 10° ESE visible
21 Dec -3.6 02:19:52 10° WSW 02:23:19 76° SSE 02:24:43 33° ENE visible
21 Dec -1.3 03:57:12 10° W 03:57:26 11° W 03:57:26 11° W visible
21 Dec -2.5 22:16:54 10° W 22:20:14 46° SSW 22:23:36 10° ESE visible
21 Dec -1.7 23:54:24 10° WSW 23:57:30 30° S 00:00:36 10° ESE visible
22 Dec -3.0 01:31:18 10° WSW 01:34:42 54° SSE 01:36:11 29° E visible
22 Dec -1.5 03:08:16 10° WSW 03:09:00 15° W 03:09:00 15° W visible
22 Dec -1.7 23:05:39 10° WSW 23:08:45 30° S 23:11:52 10° ESE visible
